TimeCDT,TemperatureF,Dew PointF,Humidity,Sea Level PressureIn,VisibilityMPH,Wind Direction,Wind SpeedMPH,Gust SpeedMPH,PrecipitationIn,Events,Conditions,WindDirDegrees,DateUTC
12:14 AM,76.8,74.8,94,29.87,10.0,ESE,3.5,-,N/A,,Clear,110,2013-08-27 05:14:00
12:33 AM,76.5,74.7,94,29.87,10.0,Calm,Calm,-,N/A,,Clear,0,2013-08-27 05:33:00
12:54 AM,74.8,73.6,96,29.87,7.0,Calm,Calm,-,N/A,,Clear,0,2013-08-27 05:54:00
1:13 AM,76.6,74.8,94,29.86,10.0,Calm,Calm,-,N/A,,Clear,0,2013-08-27 06:13:00
1:34 AM,75.4,74.1,96,29.85,7.0,ESE,3.5,-,N/A,,Clear,120,2013-08-27 06:34:00
1:54 AM,75.2,74.1,96,29.84,7.0,SE,4.6,-,N/A,,Clear,140,2013-08-27 06:54:00
2:13 AM,74.8,73.9,97,29.84,7.0,SE,3.5,-,N/A,,Clear,140,2013-08-27 07:13:00
2:33 AM,74.5,73.8,98,29.83,5.0,Calm,Calm,-,N/A,,Clear,0,2013-08-27 07:33:00
2:54 AM,73.4,73.0,99,29.83,2.5,Calm,Calm,-,N/A,,Clear,0,2013-08-27 07:54:00
3:14 AM,73.0,72.7,99,29.82,3.0,ESE,3.5,-,N/A,,Clear,120,2013-08-27 08:14:00
3:33 AM,72.9,72.7,99,29.82,4.0,SE,3.5,-,N/A,,Clear,140,2013-08-27 08:33:00
3:54 AM,72.7,72.3,99,29.83,5.0,Calm,Calm,-,N/A,,Clear,0,2013-08-27 08:54:00
4:13 AM,71.8,71.4,99,29.83,3.0,Calm,Calm,-,N/A,,Clear,0,2013-08-27 09:13:00
4:34 AM,72.5,72.3,99,29.82,5.0,South,3.5,-,N/A,,Clear,170,2013-08-27 09:34:00
4:54 AM,72.9,72.3,98,29.82,7.0,SSE,3.5,-,N/A,,Clear,150,2013-08-27 09:54:00
5:13 AM,72.9,72.0,97,29.82,7.0,Calm,Calm,-,N/A,,Clear,0,2013-08-27 10:13:00
5:34 AM,72.9,72.0,97,29.82,7.0,South,3.5,-,N/A,,Clear,170,2013-08-27 10:34:00
5:54 AM,72.5,71.8,98,29.82,7.0,South,3.5,-,N/A,,Clear,180,2013-08-27 10:54:00
6:13 AM,72.7,71.6,96,29.82,7.0,South,4.6,-,N/A,,Clear,180,2013-08-27 11:13:00
6:34 AM,72.9,71.6,96,29.82,7.0,South,4.6,-,N/A,,Clear,180,2013-08-27 11:34:00
6:53 AM,73.4,71.6,94,29.82,7.0,Calm,Calm,-,N/A,,Clear,0,2013-08-27 11:53:00
7:13 AM,73.4,71.6,94,29.83,10.0,Calm,Calm,-,N/A,,Clear,0,2013-08-27 12:13:00
7:33 AM,74.5,71.8,91,29.83,10.0,Calm,Calm,-,N/A,,Clear,0,2013-08-27 12:33:00
7:54 AM,75.7,72.5,90,29.83,10.0,Calm,Calm,-,N/A,,Clear,0,2013-08-27 12:54:00
8:14 AM,77.0,72.5,86,29.84,10.0,Calm,Calm,-,N/A,,Clear,0,2013-08-27 13:14:00
8:34 AM,78.4,73.0,83,29.84,10.0,Calm,Calm,-,N/A,,Clear,0,2013-08-27 13:34:00
8:53 AM,79.7,73.2,80,29.84,10.0,WSW,3.5,-,N/A,,Clear,250,2013-08-27 13:53:00
9:14 AM,80.6,73.2,78,29.84,10.0,West,3.5,-,N/A,,Clear,260,2013-08-27 14:14:00
9:33 AM,81.0,73.2,77,29.84,10.0,Calm,Calm,-,N/A,,Clear,0,2013-08-27 14:33:00
9:54 AM,82.4,74.3,76,29.84,10.0,West,4.6,-,N/A,,Clear,270,2013-08-27 14:54:00
10:13 AM,83.1,74.3,75,29.84,10.0,West,4.6,-,N/A,,Clear,270,2013-08-27 15:13:00
10:34 AM,84.0,74.5,73,29.84,10.0,West,3.5,-,N/A,,Clear,260,2013-08-27 15:34:00
10:53 AM,84.6,74.8,72,29.85,10.0,Calm,Calm,-,N/A,,Clear,0,2013-08-27 15:53:00
11:13 AM,85.5,75.2,71,29.84,10.0,WNW,4.6,-,N/A,,Clear,300,2013-08-27 16:13:00
11:34 AM,86.4,75.6,70,29.85,10.0,Calm,Calm,-,N/A,,Clear,0,2013-08-27 16:34:00
11:53 AM,87.1,76.5,71,29.85,10.0,Calm,Calm,-,N/A,,Clear,0,2013-08-27 16:53:00
12:14 PM,88.7,77.0,68,29.85,10.0,NW,4.6,-,N/A,,Clear,310,2013-08-27 17:14:00
12:34 PM,90.1,78.3,68,29.85,10.0,North,5.8,-,N/A,,Scattered Clouds,360,2013-08-27 17:34:00
12:53 PM,89.2,77.5,68,29.85,10.0,Calm,Calm,-,N/A,,Scattered Clouds,0,2013-08-27 17:53:00
1:14 PM,88.9,77.7,69,29.85,10.0,Calm,Calm,-,N/A,,Scattered Clouds,0,2013-08-27 18:14:00
1:34 PM,89.1,78.1,70,29.85,10.0,Calm,Calm,-,N/A,,Mostly Cloudy,0,2013-08-27 18:34:00
1:53 PM,90.5,78.6,68,29.84,10.0,NE,5.8,-,N/A,,Mostly Cloudy,50,2013-08-27 18:53:00
2:14 PM,87.8,79.5,76,29.85,10.0,North,5.8,-,N/A,,Mostly Cloudy,350,2013-08-27 19:14:00
2:33 PM,90.5,79.3,70,29.85,10.0,NE,6.9,-,N/A,,Mostly Cloudy,40,2013-08-27 19:33:00
2:54 PM,88.9,79.0,72,29.85,10.0,NE,5.8,-,N/A,,Overcast,40,2013-08-27 19:54:00
3:14 PM,89.2,79.5,73,29.85,10.0,NNE,5.8,-,N/A,,Overcast,20,2013-08-27 20:14:00
3:31 PM,89.2,79.2,72,29.85,10.0,NE,5.8,-,N/A,,Mostly Cloudy,50,2013-08-27 20:31:00
3:53 PM,90.0,79.3,71,29.84,10.0,ENE,6.9,-,N/A,,Overcast,70,2013-08-27 20:53:00
4:14 PM,89.4,79.5,72,29.85,10.0,East,4.6,-,N/A,,Mostly Cloudy,100,2013-08-27 21:14:00
4:33 PM,89.8,79.9,72,29.85,10.0,Calm,Calm,-,N/A,,Overcast,0,2013-08-27 21:33:00
4:53 PM,91.0,79.3,68,29.86,10.0,NNE,3.5,-,N/A,,Mostly Cloudy,30,2013-08-27 21:53:00
5:14 PM,89.8,79.2,71,29.86,10.0,NNW,5.8,-,N/A,,Mostly Cloudy,340,2013-08-27 22:14:00
5:34 PM,90.1,79.3,70,29.86,10.0,NE,6.9,-,N/A,,Mostly Cloudy,40,2013-08-27 22:34:00
5:53 PM,90.5,79.3,70,29.86,10.0,NE,4.6,-,N/A,,Scattered Clouds,40,2013-08-27 22:53:00
6:13 PM,90.1,78.8,69,29.87,10.0,NNE,5.8,-,N/A,,Scattered Clouds,20,2013-08-27 23:13:00
6:33 PM,89.1,78.1,70,29.87,10.0,NNE,3.5,-,N/A,,Clear,20,2013-08-27 23:33:00
6:54 PM,88.5,77.5,70,29.87,10.0,NNE,6.9,-,N/A,,Clear,20,2013-08-27 23:54:00
7:14 PM,87.8,78.6,74,29.88,10.0,NE,6.9,-,N/A,,Scattered Clouds,50,2013-08-28 00:14:00
7:33 PM,86.2,78.1,77,29.88,10.0,ENE,4.6,-,N/A,,Clear,60,2013-08-28 00:33:00
7:53 PM,84.7,77.9,80,29.89,10.0,NE,4.6,-,N/A,,Clear,50,2013-08-28 00:53:00
8:14 PM,83.5,77.2,81,29.90,10.0,NE,3.5,-,N/A,,Clear,50,2013-08-28 01:14:00
8:34 PM,80.4,76.8,89,29.90,10.0,Calm,Calm,-,N/A,,Clear,0,2013-08-28 01:34:00
8:53 PM,81.3,75.7,83,29.90,10.0,NE,4.6,-,N/A,,Clear,40,2013-08-28 01:53:00
9:14 PM,81.5,75.7,83,29.91,10.0,NNE,4.6,-,N/A,,Clear,30,2013-08-28 02:14:00
9:34 PM,81.5,75.6,82,29.92,10.0,NE,6.9,-,N/A,,Clear,40,2013-08-28 02:34:00
9:54 PM,81.0,75.2,83,29.92,10.0,NE,5.8,-,N/A,,Clear,40,2013-08-28 02:54:00
10:13 PM,80.8,74.7,82,29.94,10.0,NE,6.9,-,N/A,,Clear,50,2013-08-28 03:13:00
10:34 PM,79.2,74.5,86,29.94,10.0,ENE,4.6,-,N/A,,Clear,60,2013-08-28 03:34:00
10:53 PM,79.0,74.3,85,29.95,10.0,NE,6.9,-,N/A,,Clear,40,2013-08-28 03:53:00
11:13 PM,77.9,73.6,86,29.95,10.0,NE,6.9,-,N/A,,Clear,50,2013-08-28 04:13:00
11:34 PM,76.3,73.0,90,29.95,10.0,NE,4.6,-,N/A,,Clear,50,2013-08-28 04:34:00